TAR875 DTTA-DTTJ

Flight info

Callsign TAR875
Flight time 0h 38m
Altitude 23000
Route GIBLI2A GIBLI A411 MON UA411 ELJEM A411 SFX UA411 JBA
Aircraft A320/M-SDE3FGHIRWY/LB1

Departure

Time 2026-04-24 15:54
Airport Tunis Carthage International Airport (DTTA)

Arrival

Time 2026-04-24 16:33
Airport Djerba Zarzis International Airport (DTTJ)
Time Latitude Longitude Altitude Speed Heading
2026-04-24 15:35 36.84325 10.21855 29 ft 0 kts 282°
2026-04-24 15:46 36.84324 10.21864 30 ft 4 kts 282°
2026-04-24 15:46 36.84318 10.21897 30 ft 4 kts 282°
2026-04-24 15:46 36.84315 10.21927 30 ft 4 kts 249°
2026-04-24 15:47 36.84330 10.21950 30 ft 4 kts 206°
2026-04-24 15:47 36.84347 10.21958 30 ft 0 kts 192°
2026-04-24 15:49 36.84346 10.21958 30 ft 1 kts 192°
2026-04-24 15:49 36.84315 10.21949 30 ft 7 kts 192°
2026-04-24 15:50 36.84246 10.21931 30 ft 10 kts 192°
2026-04-24 15:50 36.84180 10.21913 30 ft 9 kts 192°
2026-04-24 15:50 36.84121 10.21898 30 ft 8 kts 192°
2026-04-24 15:50 36.84069 10.21884 30 ft 7 kts 192°
2026-04-24 15:51 36.84024 10.21872 30 ft 6 kts 192°
2026-04-24 15:51 36.83986 10.21863 30 ft 5 kts 192°
2026-04-24 15:51 36.83940 10.21854 30 ft 11 kts 178°
2026-04-24 15:51 36.83899 10.21916 30 ft 9 kts 105°
2026-04-24 15:52 36.83885 10.21990 30 ft 9 kts 102°
2026-04-24 15:52 36.83874 10.22071 30 ft 10 kts 99°
2026-04-24 15:52 36.83866 10.22169 30 ft 12 kts 88°
2026-04-24 15:52 36.83891 10.22271 31 ft 12 kts 62°
2026-04-24 15:53 36.83937 10.22338 31 ft 9 kts 41°
2026-04-24 15:53 36.83992 10.22391 31 ft 10 kts 35°
2026-04-24 15:53 36.84023 10.22405 31 ft 0 kts 14°
2026-04-24 15:53 36.84276 10.22474 31 ft 76 kts 12°
2026-04-24 15:54 36.85016 10.22676 34 ft 138 kts 12°
2026-04-24 15:54 36.86042 10.22977 375 ft 161 kts 14°
2026-04-24 15:54 36.87215 10.23288 811 ft 183 kts 15°
2026-04-24 15:54 36.88536 10.23651 1270 ft 204 kts 16°
2026-04-24 15:55 36.89944 10.24036 2018 ft 211 kts 16°
2026-04-24 15:55 36.91403 10.24434 2746 ft 218 kts 15°
2026-04-24 15:55 36.92895 10.24841 3547 ft 221 kts 16°
2026-04-24 15:55 36.94412 10.25205 4367 ft 224 kts
2026-04-24 15:56 36.95910 10.24871 5180 ft 224 kts 333°
2026-04-24 15:56 36.97087 10.23636 6040 ft 223 kts 305°
2026-04-24 15:56 36.97629 10.21812 6799 ft 229 kts 276°
2026-04-24 15:56 36.97349 10.19846 7545 ft 235 kts 244°
2026-04-24 15:57 36.96277 10.18295 8285 ft 243 kts 214°
2026-04-24 15:57 36.94672 10.17526 8948 ft 253 kts 197°
2026-04-24 15:57 36.93547 10.17143 9464 ft 253 kts 196°
2026-04-24 15:57 36.91184 10.17221 10307 ft 266 kts 155°
2026-04-24 15:58 36.89661 10.18549 10931 ft 269 kts 139°
2026-04-24 15:58 36.88224 10.20028 11734 ft 268 kts 140°
2026-04-24 15:58 36.86791 10.21467 12506 ft 269 kts 140°
2026-04-24 15:58 36.85288 10.22879 13221 ft 272 kts 149°
2026-04-24 15:59 36.83533 10.23912 13615 ft 290 kts 159°
2026-04-24 15:59 36.81568 10.24841 13829 ft 314 kts 159°
2026-04-24 15:59 36.79447 10.25834 14005 ft 337 kts 160°
2026-04-24 15:59 36.77175 10.26899 14142 ft 360 kts 159°
2026-04-24 16:00 36.74796 10.28020 14587 ft 370 kts 159°
2026-04-24 16:00 36.72377 10.29165 15208 ft 374 kts 159°
2026-04-24 16:00 36.69936 10.30324 15846 ft 377 kts 160°
2026-04-24 16:00 36.67505 10.31478 16472 ft 381 kts 160°
2026-04-24 16:01 36.65014 10.32659 17109 ft 385 kts 160°
2026-04-24 16:01 36.62504 10.33846 17755 ft 388 kts 160°
2026-04-24 16:01 36.59971 10.35042 18385 ft 391 kts 160°
2026-04-24 16:01 36.57368 10.36032 18940 ft 393 kts 170°
2026-04-24 16:02 36.54670 10.36643 19497 ft 396 kts 171°
2026-04-24 16:02 36.51948 10.37244 20027 ft 400 kts 171°
2026-04-24 16:02 36.49199 10.37841 20567 ft 403 kts 171°
2026-04-24 16:02 36.46460 10.38432 21108 ft 406 kts 171°
2026-04-24 16:03 36.43663 10.39035 21629 ft 410 kts 171°
2026-04-24 16:03 36.40841 10.39645 22159 ft 414 kts 171°
2026-04-24 16:03 36.37995 10.40262 22702 ft 417 kts 171°
2026-04-24 16:03 36.35125 10.40887 23041 ft 420 kts 171°
2026-04-24 16:04 36.32262 10.41511 23107 ft 414 kts 171°
2026-04-24 16:04 36.29440 10.42125 23111 ft 410 kts 171°
2026-04-24 16:04 36.26622 10.42737 23112 ft 412 kts 172°
2026-04-24 16:04 36.23795 10.43352 23112 ft 413 kts 172°
2026-04-24 16:05 36.18171 10.44570 23111 ft 413 kts 172°
2026-04-24 16:05 36.15339 10.45181 23113 ft 413 kts 172°
2026-04-24 16:06 36.09676 10.46404 23113 ft 413 kts 172°
2026-04-24 16:06 36.06847 10.47016 23111 ft 413 kts 172°
2026-04-24 16:06 36.01166 10.48238 23111 ft 419 kts 172°
2026-04-24 16:07 35.98281 10.48857 23112 ft 422 kts 172°
2026-04-24 16:07 35.95385 10.49479 23110 ft 423 kts 172°
2026-04-24 16:07 35.89630 10.50718 23108 ft 423 kts 172°
2026-04-24 16:08 35.86730 10.51342 23110 ft 423 kts 172°
2026-04-24 16:08 35.80933 10.52593 23110 ft 423 kts 172°
2026-04-24 16:09 35.75136 10.53843 23099 ft 423 kts 172°
2026-04-24 16:09 35.72232 10.54464 23095 ft 424 kts 172°
2026-04-24 16:09 35.70308 10.54874 23094 ft 424 kts 172°
2026-04-24 16:09 35.66419 10.55704 23094 ft 424 kts 172°
2026-04-24 16:10 35.57728 10.57551 23101 ft 425 kts 172°
2026-04-24 16:11 35.51924 10.58778 23129 ft 422 kts 172°
2026-04-24 16:11 35.49035 10.59393 23130 ft 421 kts 172°
2026-04-24 16:11 35.46153 10.60005 23126 ft 420 kts 172°
2026-04-24 16:12 35.40404 10.61230 23118 ft 419 kts 172°
2026-04-24 16:12 35.37535 10.61841 23115 ft 418 kts 172°
2026-04-24 16:12 35.31841 10.63038 23109 ft 418 kts 172°
2026-04-24 16:13 35.28978 10.63640 23110 ft 418 kts 172°
2026-04-24 16:13 35.23253 10.64853 23066 ft 413 kts 172°
2026-04-24 16:14 35.17697 10.66042 22364 ft 400 kts 172°
2026-04-24 16:14 35.14971 10.66620 21946 ft 396 kts 172°
2026-04-24 16:14 35.09591 10.67748 21112 ft 388 kts 172°
2026-04-24 16:15 35.07832 10.68117 20840 ft 386 kts 172°
2026-04-24 16:15 35.01707 10.69406 19883 ft 379 kts 172°
2026-04-24 16:16 34.96576 10.70361 19110 ft 371 kts 179°
2026-04-24 16:16 34.94012 10.70312 18746 ft 366 kts 185°
2026-04-24 16:17 34.86468 10.69823 17544 ft 358 kts 185°
2026-04-24 16:17 34.81510 10.69511 16932 ft 356 kts 185°
2026-04-24 16:18 34.76570 10.69202 16420 ft 354 kts 185°
2026-04-24 16:18 34.71701 10.68926 15922 ft 352 kts 181°
2026-04-24 16:18 34.69259 10.69107 15676 ft 352 kts 177°
2026-04-24 16:19 34.64397 10.69558 15190 ft 349 kts 177°
2026-04-24 16:19 34.61979 10.69782 14950 ft 348 kts 177°
2026-04-24 16:20 34.57158 10.70229 14469 ft 346 kts 177°
2026-04-24 16:20 34.52368 10.70669 14005 ft 344 kts 177°
2026-04-24 16:20 34.49981 10.70888 13755 ft 343 kts 177°
2026-04-24 16:21 34.45263 10.71320 13233 ft 341 kts 177°
2026-04-24 16:21 34.42908 10.71533 12905 ft 339 kts 177°
2026-04-24 16:21 34.40557 10.71748 12640 ft 339 kts 177°
2026-04-24 16:22 34.38210 10.71963 12393 ft 338 kts 177°
2026-04-24 16:22 34.33532 10.72384 11891 ft 336 kts 177°
2026-04-24 16:22 34.31201 10.72598 11643 ft 335 kts 176°
2026-04-24 16:23 34.28880 10.72816 11397 ft 334 kts 176°
2026-04-24 16:23 34.26566 10.73047 11152 ft 334 kts 176°
2026-04-24 16:23 34.24255 10.73291 10857 ft 332 kts 176°
2026-04-24 16:24 34.19661 10.73792 10054 ft 330 kts 176°
2026-04-24 16:24 34.17442 10.74035 9913 ft 319 kts 176°
2026-04-24 16:24 34.15257 10.74271 9663 ft 313 kts 176°
2026-04-24 16:24 34.13099 10.74501 9305 ft 310 kts 176°
2026-04-24 16:25 34.10960 10.74727 8939 ft 307 kts 176°
2026-04-24 16:25 34.08862 10.74643 8590 ft 301 kts 196°
2026-04-24 16:25 34.06998 10.73619 8214 ft 292 kts 220°
2026-04-24 16:26 34.04920 10.69662 7385 ft 280 kts 253°
2026-04-24 16:26 34.04164 10.67487 6956 ft 282 kts 247°
2026-04-24 16:26 34.02078 10.63486 6169 ft 282 kts 233°
2026-04-24 16:27 34.00798 10.61741 5761 ft 282 kts 227°
2026-04-24 16:27 33.99361 10.60149 5377 ft 280 kts 221°
2026-04-24 16:27 33.97790 10.58752 4922 ft 282 kts 215°
2026-04-24 16:27 33.96080 10.57562 4428 ft 284 kts 207°
2026-04-24 16:28 33.94277 10.56605 4084 ft 278 kts 200°
2026-04-24 16:28 33.92483 10.55903 3960 ft 264 kts 194°
2026-04-24 16:28 33.89099 10.55916 3755 ft 234 kts 152°
2026-04-24 16:29 33.87874 10.57076 3670 ft 218 kts 126°
2026-04-24 16:29 33.87208 10.58629 3596 ft 201 kts 101°
2026-04-24 16:29 33.87129 10.61600 3047 ft 176 kts 86°
2026-04-24 16:30 33.87219 10.64732 1859 ft 181 kts 88°
2026-04-24 16:30 33.87253 10.66183 1630 ft 167 kts 88°
2026-04-24 16:30 33.87286 10.67524 1412 ft 154 kts 88°
2026-04-24 16:31 33.87317 10.68745 1253 ft 139 kts 88°
2026-04-24 16:31 33.87336 10.69500 1110 ft 135 kts 88°
2026-04-24 16:31 33.87365 10.70616 929 ft 133 kts 88°
2026-04-24 16:31 33.87393 10.71720 755 ft 132 kts 87°
2026-04-24 16:32 33.87421 10.72821 577 ft 131 kts 87°
2026-04-24 16:32 33.87456 10.74264 345 ft 131 kts 86°
2026-04-24 16:32 33.87483 10.75357 166 ft 131 kts 86°
2026-04-24 16:32 33.87503 10.76093 56 ft 129 kts 86°
2026-04-24 16:33 33.87537 10.77088 21 ft 95 kts 89°
2026-04-24 16:33 33.87541 10.77508 22 ft 32 kts 85°
2026-04-24 16:33 33.87542 10.77650 24 ft 17 kts 95°
2026-04-24 16:33 33.87482 10.77721 22 ft 0 kts 169°
2026-04-24 16:34 33.87482 10.77722 22 ft 0 kts 169°
2026-04-24 16:34 33.87466 10.77724 23 ft 1 kts 173°
2026-04-24 16:34 33.87463 10.77725 23 ft 0 kts 174°
2026-04-24 16:34 33.87408 10.77712 31 ft 13 kts 211°
2026-04-24 16:35 33.87385 10.77618 26 ft 11 kts 270°
2026-04-24 16:35 33.87354 10.77579 27 ft 5 kts 188°
2026-04-24 16:35 33.87332 10.77578 27 ft 1 kts 180°
2026-04-24 16:35 33.87328 10.77579 27 ft 1 kts 180°
2026-04-24 16:36 33.87325 10.77579 27 ft 0 kts 179°